Location: Unspecified
(50.7693°N, 0.0000°E)
Time: 21:16:41
(UTC+00:00)

SR - Pass Details

Date: 25 June 2019
Orbit: 581 x 875 km, 66.7° (Epoch: 16 July)

Event Time Altitude Azimuth Distance (km) Brightness Sun altitude
Rises 04:03:35 0° 233° (SW) 2,792 ? 1.1°
Reaches altitude 10° 04:05:50 10° 239° (WSW) 1,901 ? 1.4°
Maximum altitude 04:09:57 48° 315° (NW) 787 ? 1.9°
Drops below altitude 10° 04:14:14 10° 30° (NNE) 1,988 ? 2.5°
Sets 04:16:39 0° 36° (NE) 2,936 ? 2.8°
